• In Austria
  • List of Countries
  • For 7 days
  • Water Temperature
  • Satellite Maps
  • Weather Map
  • News
  • Weather Widgets
  • user-avatar
    Login

    Hourly Weather Chipinge

    Today, 20 June, Wednesday

    Time Temperature Precipitation Wind Pressure Humidity
    00:00 +15°C° 0 mm 1 mps 673 mmHg 56%
    01:00 +14°C° 0 mm 1 mps 673 mmHg 58%
    02:00 +14°C° 0 mm 1 mps 673 mmHg 61%
    03:00 +14°C° 0 mm 1 mps 673 mmHg 63%
    04:00 +14°C° 0 mm 1 mps 673 mmHg 65%
    05:00 +13°C° 0 mm 1 mps 673 mmHg 67%
    06:00 +15°C° 0 mm 1 mps 674 mmHg 62%
    07:00 +18°C° 0 mm 1 mps 674 mmHg 57%
    08:00 +17°C° 0 mm 0 mps 675 mmHg 52%
    09:00 +22°C° 0 mm 1 mps 676 mmHg 44%
    10:00 +24°C° 0 mm 1 mps 677 mmHg 36%
    11:00 +27°C° 0 mm 1 mps 677 mmHg 29%
    12:00 +27°C° 0 mm 1 mps 677 mmHg 27%
    13:00 +27°C° 0 mm 2 mps 677 mmHg 26%
    14:00 +27°C° 0 mm 2 mps 676 mmHg 24%
    15:00 +26°C° 0 mm 2 mps 676 mmHg 28%
    16:00 +24°C° 0 mm 2 mps 676 mmHg 32%
    17:00 +23°C° 0 mm 2 mps 675 mmHg 37%
    18:00 +20°C° 0 mm 2 mps 675 mmHg 42%
    19:00 +18°C° 0 mm 2 mps 675 mmHg 48%
    20:00 +16°C° 0 mm 1 mps 675 mmHg 53%
    21:00 +16°C° 0 mm 1 mps 676 mmHg 58%
    22:00 +15°C° 0 mm 1 mps 676 mmHg 64%
    23:00 +15°C° 0 mm 1 mps 676 mmHg 69%

    Tomorrow, 21 June, Thursday

    Time Temperature Precipitation Wind Pressure Humidity
    00:00 +14°C° 0 mm 1 mps 676 mmHg 74%
    01:00 +14°C° 0 mm 1 mps 676 mmHg 78%
    02:00 +14°C° 0 mm 1 mps 676 mmHg 82%
    03:00 +13°C° 0 mm 1 mps 676 mmHg 84%
    04:00 +13°C° 0 mm 1 mps 676 mmHg 85%
    05:00 +13°C° 0 mm 1 mps 676 mmHg 87%
    06:00 +14°C° 0 mm 1 mps 676 mmHg 81%
    07:00 +15°C° 0 mm 0 mps 677 mmHg 75%
    08:00 +16°C° 0 mm 0 mps 678 mmHg 69%
    09:00 +20°C° 0 mm 1 mps 679 mmHg 61%
    10:00 +22°C° 0 mm 1 mps 679 mmHg 54%
    11:00 +24°C° 0 mm 1 mps 680 mmHg 46%
    12:00 +24°C° 0 mm 2 mps 679 mmHg 46%
    13:00 +24°C° 0 mm 2 mps 678 mmHg 45%
    14:00 +24°C° 0 mm 2 mps 677 mmHg 45%
    15:00 +23°C° 0 mm 2 mps 677 mmHg 49%
    16:00 +21°C° 0 mm 2 mps 676 mmHg 53%
    17:00 +20°C° 0 mm 2 mps 676 mmHg 57%
    18:00 +19°C° 0 mm 1 mps 676 mmHg 63%
    19:00 +18°C° 0 mm 1 mps 676 mmHg 69%
    20:00 +15°C° 0 mm 1 mps 676 mmHg 75%
    21:00 +15°C° 0 mm 1 mps 676 mmHg 77%
    22:00 +15°C° 0 mm 1 mps 676 mmHg 79%
    23:00 +14°C° 0 mm 1 mps 676 mmHg 81%

    Day after tomorrow, 22 June, Friday

    Time Temperature Precipitation Wind Pressure Humidity
    00:00 +14°C° 0 mm 1 mps 676 mmHg 84%
    01:00 +13°C° 0 mm 1 mps 676 mmHg 86%
    02:00 +13°C° 0 mm 1 mps 675 mmHg 88%
    03:00 +13°C° 0 mm 1 mps 675 mmHg 89%
    04:00 +13°C° 0 mm 1 mps 675 mmHg 90%
    05:00 +12°C° 0 mm 1 mps 675 mmHg 91%
    06:00 +13°C° 0 mm 0 mps 676 mmHg 84%
    07:00 +14°C° 0 mm 0 mps 677 mmHg 77%
    08:00 +16°C° 0 mm 0 mps 678 mmHg 69%
    09:00 +18°C° 0 mm 0 mps 678 mmHg 61%
    10:00 +22°C° 0 mm 1 mps 679 mmHg 52%
    11:00 +25°C° 0 mm 1 mps 679 mmHg 44%
    12:00 +25°C° 0 mm 1 mps 678 mmHg 43%
    13:00 +25°C° 0 mm 1 mps 677 mmHg 42%
    14:00 +25°C° 0 mm 2 mps 676 mmHg 41%
    15:00 +24°C° 0 mm 2 mps 676 mmHg 45%
    16:00 +23°C° 0 mm 1 mps 676 mmHg 49%
    17:00 +21°C° 0 mm 1 mps 675 mmHg 53%
    18:00 +20°C° 0 mm 1 mps 675 mmHg 58%
    19:00 +18°C° 0 mm 1 mps 676 mmHg 64%
    20:00 +16°C° 0 mm 1 mps 676 mmHg 69%
    21:00 +15°C° 0 mm 1 mps 676 mmHg 71%
    22:00 +15°C° 0 mm 1 mps 676 mmHg 74%
    23:00 +14°C° 0 mm 1 mps 676 mmHg 76%

    23 June, Saturday

    Time Temperature Precipitation Wind Pressure Humidity
    00:00 +14°C° 0 mm 1 mps 675 mmHg 79%
    01:00 +13°C° 0 mm 1 mps 675 mmHg 81%
    02:00 +13°C° 0 mm 1 mps 675 mmHg 84%
    03:00 +13°C° 0 mm 1 mps 675 mmHg 85%
    04:00 +12°C° 0 mm 1 mps 675 mmHg 86%
    05:00 +12°C° 0 mm 1 mps 675 mmHg 88%
    06:00 +14°C° 0 mm 1 mps 675 mmHg 81%
    07:00 +14°C° 0 mm 0 mps 676 mmHg 75%
    08:00 +15°C° 0 mm 0 mps 677 mmHg 68%
    09:00 +20°C° 0 mm 1 mps 677 mmHg 58%
    10:00 +22°C° 0 mm 1 mps 678 mmHg 48%
    11:00 +24°C° 0 mm 2 mps 678 mmHg 38%
    12:00 +24°C° 0 mm 2 mps 677 mmHg 36%
    13:00 +25°C° 0 mm 2 mps 676 mmHg 34%
    14:00 +25°C° 0 mm 2 mps 676 mmHg 32%
    15:00 +24°C° 0 mm 2 mps 675 mmHg 36%
    16:00 +21°C° 0 mm 2 mps 675 mmHg 41%
    17:00 +20°C° 0 mm 2 mps 675 mmHg 46%
    18:00 +18°C° 0 mm 2 mps 675 mmHg 54%
    19:00 +16°C° 0 mm 2 mps 675 mmHg 63%
    20:00 +15°C° 0 mm 1 mps 675 mmHg 72%
    21:00 +14°C° 0 mm 1 mps 675 mmHg 75%
    22:00 +14°C° 0 mm 1 mps 674 mmHg 79%
    23:00 +13°C° 0 mm 1 mps 674 mmHg 82%

    24 June, Sunday

    Time Temperature Precipitation Wind Pressure Humidity
    00:00 +13°C° 0 mm 1 mps 674 mmHg 84%
    01:00 +13°C° 0 mm 1 mps 674 mmHg 86%
    02:00 +12°C° 0 mm 1 mps 673 mmHg 88%
    03:00 +12°C° 0 mm 1 mps 673 mmHg 89%
    04:00 +12°C° 0 mm 1 mps 674 mmHg 90%
    05:00 +11°C° 0 mm 1 mps 674 mmHg 91%
    06:00 +12°C° 0 mm 0 mps 674 mmHg 84%
    07:00 +13°C° 0 mm 0 mps 675 mmHg 77%
    08:00 +15°C° 0 mm 0 mps 676 mmHg 70%
    09:00 +19°C° 0 mm 1 mps 676 mmHg 59%
    10:00 +22°C° 0 mm 1 mps 677 mmHg 48%
    11:00 +24°C° 0 mm 1 mps 677 mmHg 37%
    12:00 +24°C° 0 mm 1 mps 676 mmHg 34%
    13:00 +25°C° 0 mm 2 mps 676 mmHg 32%
    14:00 +25°C° 0 mm 2 mps 675 mmHg 29%
    15:00 +24°C° 0 mm 2 mps 675 mmHg 33%
    16:00 +21°C° 0 mm 2 mps 675 mmHg 37%
    17:00 +21°C° 0 mm 1 mps 674 mmHg 41%
    18:00 +19°C° 0 mm 1 mps 674 mmHg 47%
    19:00 +16°C° 0 mm 1 mps 674 mmHg 53%
    20:00 +15°C° 0 mm 1 mps 675 mmHg 59%
    21:00 +14°C° 0 mm 1 mps 674 mmHg 62%
    22:00 +14°C° 0 mm 1 mps 674 mmHg 66%
    23:00 +13°C° 0 mm 1 mps 674 mmHg 69%

    25 June, Monday

    Time Temperature Precipitation Wind Pressure Humidity
    00:00 +13°C° 0 mm 1 mps 674 mmHg 72%
    01:00 +12°C° 0 mm 1 mps 674 mmHg 75%
    02:00 +12°C° 0 mm 1 mps 673 mmHg 77%
    03:00 +12°C° 0 mm 1 mps 673 mmHg 78%
    04:00 +11°C° 0 mm 1 mps 673 mmHg 78%
    05:00 +11°C° 0 mm 1 mps 673 mmHg 79%
    06:00 +13°C° 0 mm 1 mps 674 mmHg 72%
    07:00 +14°C° 0 mm 1 mps 675 mmHg 65%
    08:00 +16°C° 0 mm 1 mps 676 mmHg 58%
    09:00 +20°C° 0 mm 1 mps 676 mmHg 49%
    10:00 +22°C° 0 mm 1 mps 676 mmHg 40%
    11:00 +25°C° 0 mm 1 mps 676 mmHg 31%
    12:00 +25°C° 0 mm 1 mps 676 mmHg 29%
    13:00 +25°C° 0 mm 1 mps 675 mmHg 27%
    14:00 +26°C° 0 mm 2 mps 674 mmHg 25%
    15:00 +24°C° 0 mm 2 mps 674 mmHg 29%
    16:00 +22°C° 0 mm 1 mps 673 mmHg 33%
    17:00 +21°C° 0 mm 1 mps 673 mmHg 37%
    18:00 +19°C° 0 mm 1 mps 673 mmHg 43%
    19:00 +16°C° 0 mm 1 mps 673 mmHg 48%
    20:00 +15°C° 0 mm 1 mps 673 mmHg 54%
    21:00 +14°C° 0 mm 1 mps 673 mmHg 57%
    22:00 +14°C° 0 mm 1 mps 673 mmHg 61%
    23:00 +13°C° 0 mm 1 mps 673 mmHg 64%
    Show more